Volver al catálogo

STARLINK-4500

ActivoComunicacionesVLEO
NORAD 53413·PAYLOAD·🇺🇸 United States

Lanzado Aug 10, 2022 desde Cape Canaveral Space Force Station

Loading…

Próximos Pases (próximas 24 horas)

TLE

ActualizadoSource: CelesTrak SupGP

Época: Sep 14, 2026, 14:55 UTC

1 53413C 22097AB  26257.62201389  .00024337  00000+0  15266-2 0  2576
2 53413  53.1610 345.3441 0001235  84.9909 271.7708 15.08813532    17

Sigue STARLINK-4500 en tiempo real con AllMySat

Download on the App Store